1507100400.93,51840,13.06,73940.5,-2.65,-4.33,-4.33,0,*59
1507100402.15,51841,13.06,73942.0,-2.67,-4.13,-4.13,0,*5A
1507100403.37,51842,13.06,73940.5,-2.67,-4.49,-4.33,0,*54
1507100404.62,51843,13.06,73942.3,-2.67,-4.99,-4.89,0,*59
1507100405.82,51844,13.06,73934.3,-2.69,-4.33,-4.41,0,*54
1507100407.05,51845,13.06,73926.8,-2.69,-4.13,-4.01,0,*53
1507100408.3,51846,13.06,73922.0,-2.69,-3.59,-3.63,0,*5A
1507100409.55,51847,13.06,73920.5,-2.69,-3.51,-3.51,0,*52
1507100410.74,51848,13.06,73916.5,-2.69,-3.31,-3.23,0,*5E
1507100411.99,51849,13.06,73918.5,-2.67,-3.43,-3.35,0,*53
1507100413.24,51850,13.06,73922.3,-2.67,-3.47,-3.35,0,*5F
1507100414.51,51851,13.06,73924.8,-2.67,-3.43,-3.43,0,*5B
1507100415.73,51852,13.06,73924.3,-2.67,-3.31,-3.31,0,*58
1507100416.93,51853,13.06,73930.5,-2.65,-3.27,-3.27,0,*5B
1507100418.12,51854,13.06,73930.3,-2.65,-3.07,-3.15,0,*5F
1507100419.31,51855,13.06,73928.3,-2.65,-3.19,-3.15,0,*51
1507100420.51,51856,13.06,73930.0,-2.61,-3.15,-3.15,0,*5A
1507100421.74,51857,13.06,73932.0,-2.63,-3.27,-3.27,0,*59
1507100422.98,51858,13.06,73934.0,-2.61,-3.43,-3.43,0,*54
1507100424.22,51859,13.06,73932.3,-2.61,-3.43,-3.43,0,*55
1507100425.45,51860,13.06,73926.0,-2.63,-3.27,-3.27,0,*5D
1507100426.65,51861,13.06,73922.8,-2.61,-3.03,-2.99,0,*5C
1507100427.87,51862,13.06,73926.3,-2.59,-2.99,-2.91,0,*5E
1507100429.09,51863,13.06,73926.0,-2.59,-2.87,-2.87,0,*57
1507100430.27,51864,13.06,73926.3,-2.57,-2.83,-2.83,0,*5E
1507100431.52,51865,13.06,73926.3,-2.57,-2.75,-2.75,0,*5F
1507100432.77,51866,13.06,73920.8,-2.57,-2.75,-2.71,0,*58
1507100434.04,51867,13.06,73922.3,-2.55,-2.59,-2.55,0,*53
1507100435.31,51868,13.06,73922.8,-2.55,-2.55,-2.51,0,*54
1507100436.56,51869,13.06,73924.0,-2.53,-2.51,-2.51,0,*57
1507100437.78,51870,13.06,73924.8,-2.53,-2.51,-2.43,0,*5C
1507100439.03,51871,13.06,73922.5,-2.53,-2.59,-2.55,0,*52
1507100440.27,51872,13.06,73916.8,-2.49,-2.55,-2.55,0,*56
1507100441.54,51873,13.06,73916.0,-2.51,-2.51,-2.55,0,*5A
1507100442.79,51874,13.06,73904.5,-2.49,-2.47,-2.47,0,*50
1507100443.99,51875,13.06,73904.8,-2.45,-2.31,-2.31,0,*5D
1507100445.19,51876,13.06,73912.0,-2.45,-2.23,-2.23,0,*5E
1507100446.39,51877,13.06,73910.3,-2.43,-2.35,-2.23,0,*5E
1507100447.59,51878,13.06,73916.0,-2.43,-2.35,-2.23,0,*51
1507100448.85,51879,13.06,73918.5,-2.43,-2.51,-2.51,0,*57
1507100450.12,51880,13.06,73926.3,-2.41,-2.59,-2.59,0,*53
1507100451.39,51881,13.06,73928.0,-2.41,-2.67,-2.67,0,*52
1507100452.59,51882,13.06,73926.0,-2.39,-2.79,-2.79,0,*5E
1507100453.81,51883,13.06,73926.8,-2.41,-2.95,-2.91,0,*54
1507100455.01,51884,13.06,73924.0,-2.39,-2.79,-2.79,0,*58
1507100456.22,51885,13.06,73924.8,-2.39,-2.95,-2.95,0,*59
1507100457.42,51886,13.06,73924.3,-2.39,-3.23,-3.23,0,*5A
1507100458.68,51887,13.06,73926.5,-2.41,-3.55,-3.47,0,*57
1507100459.95,51888,13.06,73928.8,-2.41,-3.67,-3.59,0,*56
1507100461.15,51889,13.06,73936.8,-2.43,-3.87,-3.83,0,*5C
1507100462.36,51890,13.06,73938.5,-2.43,-3.75,-3.87,0,*5D
1507100463.6,51891,13.06,73936.3,-2.43,-3.63,-3.63,0,*51
1507100464.85,51892,13.06,73936.8,-2.43,-3.51,-3.51,0,*52
1507100466.1,51893,13.06,73938.0,-2.45,-3.51,-3.59,0,*5D
1507100467.3,51894,13.06,73932.8,-2.45,-3.75,-3.83,0,*5B
1507100468.5,51895,13.06,73934.3,-2.45,-3.83,-3.83,0,*53
1507100469.7,51896,13.06,73934.8,-2.43,-3.75,-3.83,0,*5F
1507100470.91,51897,13.06,73938.3,-2.43,-4.09,-4.13,0,*5C
1507100472.1,51898,13.06,73930.8,-2.45,-3.87,-3.95,0,*5D
1507100473.3,51899,13.06,73930.5,-2.45,-3.87,-3.87,0,*5F
1507100474.52,51900,13.06,73920.3,-2.51,-4.05,-4.05,0,*5B
1507100475.74,51901,13.06,73916.5,-2.51,-4.33,-4.45,0,*5B
1507100476.93,51902,13.06,73916.0,-2.49,-4.33,-4.45,0,*51
1507100478.15,51903,13.06,73922.3,-2.51,-4.17,-4.21,0,*5D
1507100479.35,51904,13.06,73920.3,-2.53,-4.25,-4.25,0,*5D
1507100480.54,51905,13.06,73912.8,-2.53,-4.45,-4.45,0,*5C
1507100481.76,51906,13.06,73908.5,-2.55,-4.61,-4.61,0,*59
1507100483.03,51907,13.06,73906.8,-2.55,-5.15,-5.15,0,*58
1507100484.27,51908,13.06,73906.5,-2.57,-4.77,-4.85,0,*58
1507100485.51,51909,13.06,73908.0,-2.57,-4.73,-4.77,0,*50
1507100486.79,51910,13.06,73918.3,-2.59,-5.03,-5.11,0,*51
1507100488.05,51911,13.06,73920.8,-2.59,-4.93,-4.89,0,*58
1507100489.33,51912,13.06,73926.5,-2.63,-5.11,-5.11,0,*59
1507100490.55,51913,13.06,73924.0,-2.63,-5.39,-5.47,0,*51
1507100491.82,51914,13.06,73918.8,-2.67,-5.77,-5.81,0,*52
1507100493.05,51915,13.06,73912.5,-2.67,-5.43,-5.51,0,*59
1507100494.27,51916,13.06,73912.0,-2.69,-4.99,-5.03,0,*55
1507100495.53,51917,13.06,73914.3,-2.69,-5.19,-5.19,0,*56
1507100496.78,51918,13.06,73918.3,-2.73,-4.89,-4.89,0,*52
1507100497.98,51919,13.06,73926.3,-2.69,-4.33,-4.33,0,*58
1507100499.21,51920,13.06,73926.8,-2.69,-3.87,-4.01,0,*5B
1507100500.46,51921,13.06,73930.3,-2.69,-3.51,-3.51,0,*53
1507100501.71,51922,13.06,73926.5,-2.67,-3.43,-3.31,0,*5B
1507100502.9,51923,13.06,73924.3,-2.65,-3.19,-3.19,0,*5D
1507100504.09,51924,13.06,73924.3,-2.65,-3.15,-3.15,0,*5A
1507100505.29,51925,13.06,73926.8,-2.65,-3.03,-3.03,0,*5B
1507100506.49,51926,13.06,73922.3,-2.65,-2.95,-2.95,0,*58
1507100507.73,51927,13.06,73918.5,-2.65,-3.43,-3.43,0,*59
1507100508.98,51928,13.06,73912.5,-2.63,-3.43,-3.31,0,*55
1507100510.17,51929,13.06,73906.8,-2.61,-3.03,-3.11,0,*50
1507100511.37,51930,13.06,73910.5,-2.61,-3.03,-3.03,0,*5B
1507100512.56,51931,13.06,73912.8,-2.61,-2.99,-2.91,0,*52
1507100513.81,51932,13.06,73918.5,-2.59,-2.87,-2.75,0,*5F
1507100515.05,51933,13.06,73920.0,-2.57,-2.59,-2.55,0,*51
1507100516.3,51934,13.06,73924.0,-2.57,-2.63,-2.63,0,*5A
1507100517.55,51935,13.06,73926.0,-2.57,-2.63,-2.63,0,*5B
1507100518.77,51936,13.06,73924.3,-2.55,-2.91,-2.83,0,*59
1507100519.96,51937,13.06,73930.0,-2.53,-3.07,-3.03,0,*59
1507100521.15,51938,13.06,73928.8,-2.53,-3.19,-3.19,0,*52
1507100522.37,51939,13.06,73930.3,-2.51,-3.11,-3.15,0,*55
1507100523.55,51940,13.06,73926.8,-2.49,-2.99,-2.91,0,*5E
1507100524.77,51941,13.06,73928.5,-2.51,-3.11,-3.15,0,*5A
1507100525.99,51942,13.06,73928.3,-2.51,-3.11,-3.11,0,*5D
1507100527.19,51943,13.06,73930.0,-2.49,-3.27,-3.27,0,*55
1507100528.38,51944,13.06,73930.5,-2.49,-3.23,-3.27,0,*56
1507100529.57,51945,13.06,73934.0,-2.49,-3.23,-3.27,0,*57
1507100530.79,51946,13.06,73932.0,-2.51,-3.27,-3.31,0,*5E
1507100531.98,51947,13.06,73934.8,-2.49,-3.23,-3.27,0,*55
1507100533.17,51948,13.06,73936.0,-2.49,-3.23,-3.27,0,*5A
1507100534.36,51949,13.06,73936.8,-2.49,-3.27,-3.31,0,*58
1507100535.56,51950,13.06,73936.8,-2.49,-3.27,-3.39,0,*58
1507100536.75,51951,13.06,73932.3,-2.49,-3.27,-3.31,0,*51
1507100537.94,51952,13.06,73936.5,-2.49,-3.27,-3.31,0,*52
1507100539.13,51953,13.06,73930.3,-2.49,-3.27,-3.31,0,*53
1507100540.32,51954,13.06,73926.0,-2.49,-3.23,-3.23,0,*53
1507100541.51,51955,13.06,73926.0,-2.45,-2.87,-2.87,0,*5E
1507100542.76,51956,13.13,73926.5,-2.45,-2.71,-2.71,0,*5D
1507100544.02,51957,13.13,73924.8,-2.43,-2.63,-2.71,0,*59
1507100545.27,51958,13.06,73922.0,-2.43,-2.63,-2.59,0,*5C
1507100546.46,51959,13.13,73924.3,-2.43,-2.43,-2.43,0,*54
1507100547.68,51960,13.06,73924.8,-2.41,-2.39,-2.27,0,*53
1507100548.9,51961,13.06,73926.0,-2.41,-2.27,-2.19,0,*50
1507100550.1,51962,13.06,73926.8,-2.39,-2.15,-2.15,0,*51
1507100551.38,51963,13.06,73930.0,-2.37,-2.03,-2.03,0,*5E
1507100552.6,51964,13.06,73930.0,-2.37,-2.27,-2.23,0,*5D
1507100553.82,51965,13.13,73928.0,-2.37,-2.27,-2.27,0,*58
1507100555.1,51966,13.06,73926.8,-2.33,-2.11,-2.11,0,*5F
1507100556.36,51967,13.13,73926.3,-2.31,-2.03,-1.91,0,*54
1507100557.59,51968,13.06,73930.0,-2.31,-1.91,-1.79,0,*55
1507100558.86,51969,13.06,73924.8,-2.29,-1.91,-1.83,0,*58
1507100560.1,51970,13.06,73928.8,-2.27,-1.95,-1.95,0,*5D
1507100561.3,51971,13.06,73924.0,-2.27,-2.15,-2.15,0,*5C
1507100562.55,51972,13.06,73926.0,-2.27,-2.55,-2.51,0,*5B
1507100563.77,51973,13.06,73928.3,-2.29,-2.83,-2.95,0,*57
1507100564.97,51974,13.13,73932.8,-2.23,-3.03,-3.03,0,*5D
1507100566.17,51975,13.06,73928.8,-2.27,-3.07,-3.19,0,*57
1507100567.39,51976,13.06,73928.3,-2.29,-3.23,-3.35,0,*52
1507100568.59,51977,13.06,73928.3,-2.27,-3.31,-3.39,0,*52
1507100569.83,51978,13.06,73930.8,-2.29,-3.35,-3.43,0,*5A
1507100571.08,51979,13.06,73930.3,-2.27,-3.47,-3.51,0,*53
1507100572.35,51980,13.06,73928.8,-2.29,-3.59,-3.59,0,*5C
1507100573.61,51981,13.06,73934.8,-2.29,-3.83,-4.01,0,*50
1507100574.84,51982,13.06,73932.0,-2.33,-4.17,-4.29,0,*58
1507100576.07,51983,13.06,73932.0,-2.33,-4.05,-4.25,0,*56
1507100577.3,51984,13.06,73934.3,-2.33,-3.95,-4.05,0,*5D
1507100578.52,51985,13.13,73932.3,-2.33,-3.87,-3.95,0,*51
1507100579.73,51986,13.13,73928.5,-2.35,-3.83,-3.95,0,*50
1507100580.96,51987,13.06,73924.8,-2.33,-3.83,-3.95,0,*57
1507100582.21,51988,13.06,73920.8,-2.35,-4.01,-4.01,0,*59
1507100583.44,51989,13.06,73920.3,-2.35,-3.87,-4.01,0,*51
1507100584.68,51990,13.06,73924.0,-2.37,-3.91,-4.09,0,*54
1507100585.91,51991,13.06,73926.0,-2.37,-3.79,-3.91,0,*55
1507100587.16,51992,13.06,73924.3,-2.37,-3.67,-3.79,0,*5F
1507100588.41,51993,13.13,73930.5,-2.37,-3.31,-3.43,0,*54
1507100589.65,51994,13.06,73928.8,-2.37,-3.27,-3.27,0,*56
1507100590.87,51995,13.06,73928.8,-2.39,-3.35,-3.43,0,*58
1507100592.07,51996,13.06,73926.5,-2.39,-3.23,-3.35,0,*5D
1507100593.28,51997,13.06,73926.5,-2.39,-3.31,-3.35,0,*5F
1507100594.47,51998,13.13,73928.3,-2.39,-3.23,-3.31,0,*57
1507100595.7,51999,13.06,73926.8,-2.37,-3.19,-3.27,0,*56
1507100596.93,52000,13.06,73924.3,-2.37,-3.15,-3.27,0,*50
1507100598.16,52001,13.13,73930.3,-2.37,-3.27,-3.39,0,*5F
1507100599.38,52002,13.06,73928.5,-2.37,-3.15,-3.15,0,*53
1507100600.61,52003,13.06,73920.5,-2.37,-2.99,-2.99,0,*52
1507100601.87,52004,13.06,73922.0,-2.37,-2.79,-2.75,0,*59
1507100603.12,52005,13.06,73922.3,-2.35,-2.47,-2.47,0,*56
1507100604.38,52006,13.06,73918.5,-2.35,-2.51,-2.51,0,*55
1507100605.57,52007,13.06,73920.0,-2.35,-2.83,-2.83,0,*54
1507100606.81,52008,13.06,73920.8,-2.33,-2.95,-2.99,0,*51
1507100608.04,52009,13.06,73920.8,-2.33,-2.95,-3.11,0,*51
1507100609.26,52010,13.13,73926.0,-2.33,-3.07,-3.11,0,*53
1507100610.48,52011,13.06,73922.5,-2.33,-3.11,-3.11,0,*55
1507100611.7,52012,13.13,73926.8,-2.33,-3.11,-3.23,0,*57
1507100612.92,52013,13.06,73922.0,-2.33,-3.23,-3.39,0,*5C
1507100614.17,52014,13.13,73924.5,-2.33,-3.35,-3.59,0,*5A
1507100615.4,52015,13.06,73926.0,-2.33,-3.27,-3.27,0,*51
1507100616.6,52016,13.06,73924.0,-2.35,-3.15,-3.15,0,*54
1507100617.8,52017,13.06,73926.0,-2.35,-3.07,-3.15,0,*56
1507100619.02,52018,13.06,73926.8,-2.33,-2.83,-2.95,0,*5B
1507100620.25,52019,13.06,73928.0,-2.33,-2.87,-2.95,0,*5E
1507100621.45,52020,13.06,73928.3,-2.31,-3.07,-3.11,0,*52
1507100622.68,52021,13.13,73934.8,-2.33,-3.11,-3.27,0,*53
1507100623.9,52022,13.06,73928.3,-2.33,-3.35,-3.39,0,*59
1507100625.15,52023,13.13,73936.0,-2.33,-3.35,-3.47,0,*51
1507100626.4,52024,13.13,73932.3,-2.31,-3.59,-3.71,0,*5B
1507100627.62,52025,13.13,73938.3,-2.31,-3.67,-3.79,0,*5F
1507100628.85,52026,13.13,73936.5,-2.33,-3.87,-4.05,0,*5C
1507100630.05,52027,13.06,73936.3,-2.35,-4.17,-4.17,0,*56
1507100631.25,52028,13.06,73934.5,-2.35,-4.41,-4.61,0,*5B
1507100632.52,52029,13.06,73938.8,-2.37,-4.85,-5.11,0,*56
1507100633.74,52030,13.13,73936.3,-2.37,-5.43,-5.47,0,*56
1507100635.02,52031,13.06,73926.3,-2.41,-5.81,-5.93,0,*51
1507100636.22,52032,13.06,73926.3,-2.45,-6.31,-6.47,0,*54
1507100637.44,52033,13.06,73938.0,-2.51,-6.35,-6.47,0,*54
1507100638.66,52034,13.06,73932.3,-2.53,-5.93,-6.01,0,*5C
1507100639.88,52035,13.13,73934.0,-2.55,-5.35,-5.35,0,*53
1507100641.12,52036,13.13,73934.0,-2.55,-4.93,-4.99,0,*5A
1507100642.36,52037,13.13,73934.0,-2.55,-4.99,-5.03,0,*53
1507100643.64,52038,13.06,73930.3,-2.59,-5.23,-5.31,0,*51
1507100644.92,52039,13.06,73928.5,-2.59,-5.31,-5.31,0,*53
1507100646.14,52040,13.13,73932.0,-2.59,-4.53,-4.53,0,*5D
1507100647.37,52041,13.13,73932.0,-2.59,-4.25,-4.25,0,*5C
1507100648.59,52042,13.13,73930.0,-2.59,-4.25,-4.17,0,*5E
1507100649.82,52043,13.06,73930.3,-2.59,-4.05,-4.05,0,*5E
1507100651.08,52044,13.06,73928.8,-2.59,-3.51,-3.51,0,*59
1507100652.28,52045,13.13,73928.3,-2.61,-3.11,-3.15,0,*57
1507100653.5,52046,13.06,73924.8,-2.59,-2.87,-2.79,0,*5A
1507100654.77,52047,13.06,73922.0,-2.55,-2.67,-2.55,0,*57
1507100656.02,52048,13.06,73926.8,-2.53,-2.51,-2.51,0,*5F
1507100657.24,52049,13.13,73930.8,-2.53,-2.51,-2.43,0,*5D
1507100658.48,52050,13.06,73928.0,-2.49,-2.51,-2.47,0,*5A
1507100659.73,52051,13.06,73926.3,-2.49,-2.63,-2.55,0,*59
1507100660.95,52052,13.13,73924.8,-2.49,-2.79,-2.63,0,*54
1507100662.2,52053,13.06,73924.3,-2.49,-2.63,-2.63,0,*5E
1507100663.44,52054,13.06,73924.0,-2.45,-2.59,-2.59,0,*55
1507100664.67,52055,13.13,73926.8,-2.43,-2.87,-2.75,0,*5F
1507100665.87,52056,13.06,73924.5,-2.45,-2.95,-2.87,0,*54
1507100667.09,52057,13.13,73928.0,-2.41,-2.95,-2.91,0,*56
1507100668.29,52058,13.13,73932.8,-2.39,-3.07,-3.07,0,*52
1507100669.52,52059,13.06,73924.3,-2.41,-3.07,-3.03,0,*58
1507100670.71,52060,13.13,73926.3,-2.39,-2.83,-2.79,0,*5C
1507100671.99,52061,13.13,73924.5,-2.41,-2.71,-2.67,0,*50
1507100673.24,52062,13.13,73926.8,-2.39,-2.59,-2.59,0,*5B
1507100674.44,52063,13.13,73924.3,-2.39,-2.43,-2.43,0,*5A
1507100675.66,52064,13.13,73926.3,-2.37,-2.23,-2.15,0,*56
1507100676.94,52065,13.06,73922.0,-2.37,-2.07,-1.99,0,*56
1507100678.2,52066,13.13,73926.8,-2.33,-1.83,-1.71,0,*58
1507100679.46,52067,13.06,73922.5,-2.33,-1.83,-1.71,0,*59
1507100680.68,52068,13.06,73920.5,-2.31,-1.51,-1.43,0,*5A
1507100681.94,52069,13.13,73928.3,-2.27,-1.39,-1.39,0,*5F
1507100683.16,52070,13.13,73928.8,-2.27,-1.35,-1.29,0,*5A
1507100684.38,52071,13.13,73928.5,-2.21,-1.25,-1.33,0,*57
1507100685.6,52072,13.06,73930.5,-2.21,-1.33,-1.25,0,*54
1507100686.82,52073,13.13,73928.8,-2.19,-1.33,-1.39,0,*53
1507100688.1,52074,13.13,73934.8,-2.17,-1.39,-1.39,0,*50
1507100689.32,52075,13.13,73932.0,-2.17,-1.67,-1.59,0,*5C
1507100690.52,52076,13.06,73926.8,-2.15,-1.79,-1.71,0,*58
1507100691.73,52077,13.06,73920.0,-2.13,-1.63,-1.55,0,*52
1507100692.95,52078,13.13,73920.0,-2.13,-1.79,-1.79,0,*58
1507100694.2,52079,13.13,73926.8,-2.13,-1.87,-1.75,0,*54
1507100695.42,52080,13.13,73926.5,-2.11,-1.71,-1.63,0,*5E
1507100696.67,52081,13.06,73924.8,-2.09,-1.95,-1.87,0,*56
1507100697.91,52082,13.06,73924.3,-2.09,-1.95,-1.83,0,*51
1507100699.16,52083,13.13,73928.8,-2.09,-2.07,-1.99,0,*53
1507100700.35,52084,13.13,73926.5,-2.09,-2.15,-2.23,0,*55
1507100701.55,52085,13.13,73930.8,-2.09,-2.23,-2.23,0,*51
1507100702.83,52086,13.13,73932.0,-2.07,-2.11,-2.03,0,*5F
1507100704.08,52087,13.06,73930.5,-2.05,-2.03,-2.03,0,*5F
1507100705.33,52088,13.13,73928.8,-2.05,-2.03,-2.03,0,*50
1507100706.55,52089,13.13,73932.5,-2.05,-2.47,-2.43,0,*55
1507100707.75,52090,13.13,73934.0,-2.05,-2.43,-2.35,0,*58
1507100708.95,52091,13.13,73934.5,-2.05,-2.35,-2.31,0,*5C
1507100710.2,52092,13.13,73934.8,-2.07,-2.43,-2.47,0,*5D
1507100711.45,52093,13.13,73934.0,-2.05,-2.67,-2.67,0,*5A
1507100712.72,52094,13.13,73936.5,-2.07,-2.71,-2.67,0,*58
1507100713.95,52095,13.13,73938.3,-2.05,-2.47,-2.43,0,*58
1507100715.2,52096,13.13,73942.5,-2.05,-2.71,-2.71,0,*5F
1507100716.42,52097,13.13,73938.8,-2.05,-3.35,-3.43,0,*5F
1507100717.69,52098,13.13,73940.3,-2.07,-3.55,-3.59,0,*5F
1507100718.91,52099,13.13,73938.3,-2.07,-3.31,-3.23,0,*51
1507100720.1,52100,13.13,73932.3,-2.09,-3.15,-3.23,0,*58
1507100721.31,52101,13.06,73930.0,-2.07,-3.19,-3.23,0,*5B
1507100722.54,52102,13.13,73936.5,-2.11,-3.79,-3.79,0,*56
1507100723.77,52103,13.13,73936.3,-2.11,-4.57,-4.65,0,*56
1507100725.03,52104,13.13,73932.3,-2.15,-5.27,-5.27,0,*54
1507100726.25,52105,13.06,73932.3,-2.15,-4.99,-5.03,0,*57
1507100727.44,52106,13.13,73932.8,-2.19,-4.61,-4.53,0,*5B
1507100728.64,52107,13.06,73928.0,-2.19,-3.83,-3.87,0,*5F
1507100729.91,52108,13.13,73930.0,-2.21,-3.51,-3.51,0,*5F
1507100731.13,52109,13.13,73926.0,-2.21,-3.23,-3.27,0,*5A
1507100732.36,52110,13.13,73918.3,-2.21,-3.03,-3.03,0,*56
1507100733.57,52111,13.13,73926.0,-2.17,-2.83,-2.83,0,*52
1507100734.77,52112,13.13,73926.5,-2.19,-2.99,-2.99,0,*5F
1507100735.96,52113,13.13,73924.5,-2.19,-3.11,-3.11,0,*5E
1507100737.2,52114,13.06,73920.5,-2.19,-3.51,-3.59,0,*51
1507100738.4,52115,13.06,73918.3,-2.19,-3.39,-3.39,0,*58
1507100739.63,52116,13.13,73920.8,-2.19,-3.71,-3.71,0,*5B
1507100740.86,52117,13.13,73926.5,-2.21,-3.83,-3.91,0,*52
1507100742.06,52118,13.13,73916.8,-2.23,-3.87,-3.87,0,*5C
1507100743.26,52119,13.13,73912.3,-2.23,-4.45,-4.53,0,*5A
1507100744.45,52120,13.13,73908.3,-2.23,-4.53,-4.53,0,*57
1507100745.67,52121,13.13,73902.5,-2.27,-4.21,-4.21,0,*52
1507100746.93,52122,13.13,73902.0,-2.29,-3.67,-3.71,0,*58
1507100748.16,52123,13.13,73900.3,-2.29,-3.91,-3.83,0,*5D
1507100749.43,52124,13.13,73900.3,-2.29,-3.67,-3.59,0,*54
1507100750.63,52125,13.13,73896.5,-2.27,-3.19,-3.19,0,*56
1507100751.83,52126,13.13,73906.0,-2.27,-3.07,-3.07,0,*55
1507100753.04,52127,13.06,73908.0,-2.29,-2.79,-2.79,0,*5A
1507100754.29,52128,13.13,73912.8,-2.27,-2.67,-2.63,0,*5F
1507100755.49,52129,13.13,73908.3,-2.27,-2.79,-2.79,0,*5A
1507100756.69,52130,13.13,73908.8,-2.23,-2.39,-2.39,0,*56
1507100757.88,52131,13.13,73904.8,-2.23,-2.39,-2.39,0,*57
1507100759.07,52132,13.13,73900.0,-2.23,-2.39,-2.35,0,*58
1507100760.27,52133,13.13,73902.5,-2.19,-2.19,-2.19,0,*5C
1507100761.46,52134,13.13,73902.8,-2.19,-2.23,-2.19,0,*52
1507100762.68,52135,13.13,73912.3,-2.17,-2.19,-2.23,0,*5D
1507100763.89,52136,13.13,73914.0,-2.17,-2.15,-2.15,0,*57
1507100765.14,52137,13.13,73916.0,-2.17,-2.15,-2.07,0,*55
1507100766.34,52138,13.13,73908.0,-2.15,-2.23,-2.23,0,*5B
1507100767.54,52139,13.13,73922.5,-2.15,-2.31,-2.31,0,*5A
1507100768.76,52140,13.13,73916.8,-2.13,-2.31,-2.27,0,*55
1507100769.97,52141,13.13,73920.8,-2.13,-2.43,-2.43,0,*53
1507100771.25,52142,13.06,73920.8,-2.13,-2.51,-2.55,0,*54
1507100772.52,52143,13.06,73924.0,-2.13,-2.63,-2.63,0,*51
1507100773.77,52144,13.13,73924.8,-2.11,-2.75,-2.83,0,*5D
1507100775.04,52145,13.13,73930.0,-2.11,-2.51,-2.59,0,*5D
1507100776.26,52146,13.13,73932.3,-2.11,-2.23,-2.23,0,*56
1507100777.5,52147,13.13,73934.8,-2.09,-2.51,-2.59,0,*56
1507100778.75,52148,13.13,73934.8,-2.09,-2.71,-2.71,0,*51
1507100780.0,52149,13.13,73934.8,-2.07,-2.71,-2.83,0,*53
1507100781.22,52150,13.13,73934.8,-2.07,-2.79,-2.83,0,*53
1507100782.47,52151,13.13,73934.0,-2.09,-2.75,-2.75,0,*59
1507100783.71,52152,13.13,73934.8,-2.09,-2.59,-2.71,0,*50
1507100784.98,52153,13.13,73938.0,-2.07,-2.59,-2.59,0,*55
1507100786.2,52154,13.13,73934.3,-2.07,-2.83,-2.83,0,*52
1507100787.39,52155,13.13,73938.3,-2.09,-2.91,-2.99,0,*55
1507100788.66,52156,13.13,73932.8,-2.07,-3.43,-3.47,0,*54
1507100789.94,52157,13.13,73932.5,-2.07,-4.01,-4.01,0,*51
1507100791.19,52158,13.13,73934.5,-2.11,-4.65,-4.69,0,*55
1507100792.42,52159,13.13,73934.0,-2.13,-4.93,-4.99,0,*50
1507100793.7,52160,13.13,73934.5,-2.17,-4.89,-5.03,0,*57
1507100794.96,52161,13.13,73932.5,-2.17,-4.73,-4.77,0,*51
1507100796.16,52162,13.13,73936.0,-2.19,-4.25,-4.37,0,*5B
1507100797.35,52163,13.13,73932.5,-2.19,-4.13,-4.25,0,*5C
1507100798.55,52164,13.13,73928.8,-2.19,-4.25,-4.37,0,*5D
1507100799.78,52165,13.13,73922.5,-2.21,-4.13,-4.13,0,*54
1507100801.0,52166,13.13,73920.5,-2.21,-3.87,-3.87,0,*57
1507100802.2,52167,13.13,73922.0,-2.23,-4.57,-4.53,0,*50
1507100803.41,52168,13.13,73926.8,-2.23,-4.57,-4.53,0,*5F
1507100804.65,52169,13.13,73922.8,-2.27,-4.81,-4.81,0,*5E
1507100805.88,52170,13.13,73922.0,-2.29,-4.61,-4.61,0,*58
1507100807.15,52171,13.13,73916.8,-2.29,-4.73,-4.73,0,*59
1507100808.38,52172,13.13,73914.0,-2.29,-4.25,-4.25,0,*5A
1507100809.6,52173,13.13,73918.5,-2.33,-4.49,-4.53,0,*5B
1507100810.83,52174,13.13,73926.3,-2.33,-3.87,-3.83,0,*53
1507100812.07,52175,13.13,73922.3,-2.31,-3.43,-3.43,0,*54
1507100813.3,52176,13.13,73916.3,-2.33,-3.15,-3.15,0,*55
1507100814.5,52177,13.13,73932.0,-2.31,-3.31,-3.31,0,*56
1507100815.74,52178,13.13,73928.5,-2.31,-3.55,-3.55,0,*59
1507100816.95,52179,13.13,73922.8,-2.31,-3.79,-3.79,0,*58
1507100818.16,52180,13.13,73920.8,-2.31,-4.21,-4.13,0,*5F
1507100819.39,52181,13.13,73918.8,-2.33,-4.37,-4.29,0,*52
1507100820.66,52182,13.13,73914.0,-2.33,-4.81,-4.81,0,*5E
1507100821.88,52183,13.13,73910.3,-2.33,-4.37,-4.41,0,*5E
1507100823.11,52184,13.13,73912.0,-2.33,-4.13,-4.13,0,*58
1507100824.31,52185,13.13,73914.3,-2.35,-4.53,-4.41,0,*5C
1507100825.51,52186,13.13,73916.8,-2.35,-4.05,-4.13,0,*5B
1507100826.77,52187,13.13,73926.0,-2.37,-4.01,-3.91,0,*51
1507100828.03,52188,13.13,73928.8,-2.37,-4.77,-4.77,0,*50
1507100829.31,52189,13.13,73926.0,-2.37,-4.01,-4.01,0,*51
1507100830.59,52190,13.13,73932.0,-2.37,-3.43,-3.43,0,*59
1507100831.86,52191,13.13,73924.3,-2.37,-3.63,-3.55,0,*5D
1507100833.09,52192,13.13,73928.0,-2.37,-3.79,-3.79,0,*5B
1507100834.32,52193,13.13,73926.3,-2.37,-3.27,-3.31,0,*5D
1507100835.54,52194,13.13,73920.8,-2.37,-2.91,-2.91,0,*5D
1507100836.78,52195,13.13,73926.0,-2.35,-2.59,-2.59,0,*5E
1507100838.04,52196,13.13,73922.0,-2.35,-2.47,-2.47,0,*5D
1507100839.32,52197,13.13,73922.0,-2.33,-2.63,-2.67,0,*5E
1507100840.57,52198,13.13,73924.5,-2.31,-2.67,-2.67,0,*57
1507100841.82,52199,13.13,73916.3,-2.29,-2.71,-2.79,0,*57
1507100843.04,52200,13.13,73916.8,-2.29,-3.03,-3.07,0,*58
1507100844.26,52201,13.13,73916.5,-2.29,-3.11,-3.11,0,*5D
1507100845.48,52202,13.13,73910.3,-2.29,-3.11,-3.11,0,*5E
1507100846.68,52203,13.13,73912.5,-2.27,-3.15,-3.19,0,*5D
1507100847.88,52204,13.13,73912.5,-2.27,-3.03,-3.07,0,*52
1507100849.13,52205,13.13,73922.8,-2.23,-2.75,-2.67,0,*50
1507100850.35,52206,13.13,73924.0,-2.21,-2.35,-2.35,0,*52
1507100851.55,52207,13.13,73918.8,-2.23,-2.43,-2.39,0,*5C
1507100852.8,52208,13.13,73918.8,-2.23,-2.59,-2.67,0,*53
1507100854.08,52209,13.13,73920.0,-2.21,-2.47,-2.51,0,*5A
1507100855.36,52210,13.13,73926.0,-2.21,-2.75,-2.71,0,*51
1507100856.6,52211,13.13,73922.8,-2.19,-2.75,-2.75,0,*5F
1507100857.85,52212,13.13,73920.0,-2.19,-2.71,-2.75,0,*58
1507100859.09,52213,13.13,73918.8,-2.17,-2.79,-2.71,0,*5B
1507100860.29,52214,13.13,73914.0,-2.19,-2.43,-2.35,0,*5B
1507100861.51,52215,13.13,73912.0,-2.17,-2.31,-2.23,0,*56
1507100862.75,52216,13.13,73920.8,-2.15,-2.03,-1.95,0,*58
1507100864.03,52217,13.13,73918.0,-2.13,-2.03,-1.99,0,*53
1507100865.3,52218,13.13,73920.3,-2.13,-1.99,-1.87,0,*53
1507100866.55,52219,13.13,73922.8,-2.13,-1.91,-1.79,0,*5B
1507100867.8,52220,13.13,73926.3,-2.11,-1.83,-1.75,0,*5C
1507100868.99,52221,13.13,73936.0,-2.09,-1.75,-1.75,0,*5D
1507100870.27,52222,13.13,73938.3,-2.07,-2.07,-2.07,0,*50
1507100871.54,52223,13.13,73938.3,-2.07,-2.59,-2.55,0,*5D
1507100872.81,52224,13.13,73938.3,-2.07,-3.67,-3.71,0,*51
1507100874.06,52225,13.13,73930.5,-2.07,-3.67,-3.83,0,*5D
1507100875.3,52226,13.13,73934.3,-2.09,-3.51,-3.59,0,*52
1507100876.52,52227,13.13,73930.5,-2.11,-3.87,-3.87,0,*52
1507100877.75,52228,13.13,73928.3,-2.11,-3.79,-3.91,0,*5B
1507100878.98,52229,13.13,73926.5,-2.11,-3.91,-4.05,0,*56
1507100880.21,52230,13.13,73916.8,-2.11,-4.25,-4.37,0,*57
1507100881.45,52231,13.13,73914.3,-2.15,-4.73,-4.77,0,*55
1507100882.7,52232,13.13,73912.3,-2.17,-4.99,-5.03,0,*52
1507100883.91,52233,13.13,73910.3,-2.19,-4.65,-4.77,0,*5C
1507100885.11,52234,13.13,73914.5,-2.19,-4.41,-4.61,0,*5A
1507100886.34,52235,13.13,73914.3,-2.21,-3.83,-3.91,0,*51
1507100887.61,52236,13.13,73916.0,-2.21,-3.51,-3.55,0,*55
1507100888.85,52237,13.13,73912.8,-2.23,-3.55,-3.67,0,*53
1507100890.1,52238,13.13,73910.3,-2.21,-3.91,-4.01,0,*51
1507100891.29,52239,13.13,73906.8,-2.23,-4.45,-4.45,0,*5C
1507100892.49,52240,13.13,73904.3,-2.27,-4.05,-4.17,0,*55
1507100893.71,52241,13.13,73894.8,-2.27,-3.75,-3.67,0,*54
1507100894.91,52242,13.13,73896.0,-2.27,-3.27,-3.27,0,*54
1507100896.11,52243,13.13,73904.8,-2.27,-3.03,-3.07,0,*51
1507100897.33,52244,13.13,73914.3,-2.21,-2.83,-2.83,0,*54
1507100898.58,52245,13.13,73916.3,-2.21,-2.83,-2.75,0,*5C
1507100899.82,52246,13.13,73916.5,-2.19,-2.75,-2.71,0,*59
1507100901.07,52247,13.13,73918.8,-2.19,-2.71,-2.71,0,*5C
1507100902.32,52248,13.13,73916.0,-2.19,-2.63,-2.59,0,*5A
1507100903.56,52249,13.13,73916.8,-2.19,-2.59,-2.51,0,*5A
1507100904.81,52250,13.13,73918.0,-2.19,-2.63,-2.71,0,*59
1507100906.08,52251,13.13,73916.0,-2.17,-2.55,-2.55,0,*55
1507100907.3,52252,13.13,73916.5,-2.17,-2.43,-2.35,0,*57
1507100908.49,52253,13.13,73916.5,-2.15,-2.91,-2.91,0,*55